[[{"header":{"parameterUnit":"m.s-1","parameterCategory":1,"la1":30.2991,"la2":30.254,"lo1":-89.0895,"lo2":-89.0444,"dy":0.0017,"dx":0.0017,"nx":28,"ny":28,"refTime":"2025-03-17T09:00:00:Z","depth":0,"parameterNumber":2,"parameterNumberName":"U-component_of_WINDS"},"data":[0,0,0,0,0,0,0,0,0,0,0,0,0,0,0,0,0,0,0,0,0,0,0,0,0,0,0,0,0,0,0,0,0,0,0,0,0,0,0,0,0,0,0,0,0,0,0,0,0,0,0,0,0,0,0,0,0,0,-1.7515,-1.7516,0,-1.7532,-1.7533,-1.7533,-1.7526,-1.7526,-1.7526,-1.7525,-1.7544,-1.7545,-1.7546,0,0,0,0,0,0,0,0,0,0,0,0,0,-1.7479,-1.748,-1.7515,-1.7516,-1.7516,-1.7532,-1.7533,-1.7533,-1.7526,-1.7526,-1.7525,-1.7525,-1.7544,-1.7545,-1.7546,0,0,0,0,0,0,0,0,0,0,0,0,0,-1.7495,-1.748,-1.7515,-1.7515,-1.7515,-1.7532,-1.7533,-1.7533,-1.7527,-1.7526,-1.7525,-1.7525,-1.7543,-1.7545,-1.7546,-1.7566,0,0,-1.755,-1.755,0,0,0,0,0,0,0,0,-1.7494,-1.7497,-1.7514,-1.7515,-1.7515,-1.7527,-1.7527,-1.7544,-1.7527,-1.7522,-1.7525,-1.7524,-1.7539,-1.754,-1.7545,-1.7567,-1.7567,-1.755,-1.7551,-1.7551,-1.7552,0,0,0,0,0,0,0,-1.7493,-1.7496,-1.7522,-1.7515,-1.7515,-1.7514,-1.7516,-1.753,-1.7534,-1.7522,-1.7522,-1.7524,-1.7539,-1.7544,-1.7545,-1.7568,-1.755,-1.7551,-1.7552,-1.7552,-1.7607,-1.7608,0,0,0,0,0,0,-1.7492,-1.7495,-1.7522,-1.7523,-1.7503,-1.7515,-1.7517,-1.7523,-1.7533,-1.7534,-1.7524,-1.7524,-1.7542,-1.7544,-1.7546,-1.757,-1.7551,-1.7553,-1.7553,-1.7606,-1.7607,-1.7608,0,0,0,0,0,0,-1.7491,-1.7494,-1.7521,-1.7509,-1.7512,-1.7516,-1.7524,-1.7524,-1.7529,-1.7535,-1.7536,-1.7529,-1.7541,-1.7544,-1.7561,-1.757,-1.7553,-1.7554,-1.7606,-1.7607,-1.7608,-1.7618,0,0,0,0,0,0,-1.749,-1.7494,-1.7501,-1.7509,-1.7513,-1.7535,-1.7524,-1.7525,-1.7531,-1.753,-1.7539,-1.754,-1.7541,-1.7559,-1.7562,-1.7572,-1.7555,-1.7605,-1.7606,-1.7607,-1.7616,-1.7619,-1.7621,0,0,0,0,0,-1.7489,-1.7504,-1.7502,-1.7505,-1.7522,-1.7535,-1.7538,-1.7538,-1.7532,-1.7539,-1.7543,-1.754,-1.7569,-1.7561,-1.7564,-1.7574,-1.7604,-1.7606,-1.7607,-1.7615,-1.7618,-1.7621,0,0,0,0,0,0,-1.7497,-1.7505,-1.7502,-1.752,-1.7527,-1.7534,-1.7544,-1.7541,-1.7551,-1.7549,-1.755,-1.7552,-1.757,-1.7574,-1.7565,-1.7594,-1.7586,-1.7588,-1.7591,-1.7594,-1.7596,-1.7594,-1.7556,0,0,0,0,0,-1.7501,-1.7511,-1.7517,-1.7532,-1.7536,-1.7539,-1.7545,-1.7545,-1.7553,-1.7556,-1.7561,-1.7569,-1.758,-1.7587,-1.7598,-1.7617,-1.7619,-1.7626,-1.7629,-1.763,-1.7632,-1.7643,-1.7646,-1.7613,-1.7613,-1.7613,0,0,-1.7509,-1.7515,-1.7521,-1.7534,-1.754,-1.7551,-1.7542,-1.7554,-1.7562,-1.7558,-1.7574,-1.7578,-1.7587,-1.7605,-1.7614,-1.7609,-1.7642,-1.7632,-1.7634,-1.7634,-1.7645,-1.7648,-1.7651,-1.7614,-1.7614,-1.7614,0,0,-1.753,-1.7535,-1.7547,-1.7553,-1.7562,-1.7564,-1.7567,-1.7575,-1.7577,-1.7593,-1.759,-1.7601,-1.7619,-1.7626,-1.7632,-1.7655,-1.7653,-1.7659,-1.767,-1.7681,-1.7683,-1.7686,-1.7694,-1.7697,-1.7661,-1.7661,-1.7661,0,-1.7539,-1.7554,-1.7555,-1.7567,-1.7573,-1.7569,-1.7583,-1.7589,-1.76,-1.7605,-1.76,-1.7624,-1.7629,-1.7649,-1.7655,-1.766,-1.7664,-1.7657,-1.7683,-1.7685,-1.7688,-1.7695,-1.7698,-1.7661,-1.7661,-1.7661,-1.7661,0,-1.7565,-1.7576,-1.7586,-1.7597,-1.7604,-1.7617,-1.7619,-1.7627,-1.7627,-1.7629,-1.7646,-1.7653,-1.7665,-1.767,-1.767,-1.769,-1.7687,-1.7683,-1.7674,-1.7691,-1.7699,-1.7702,-1.7662,-1.7662,-1.7662,-1.7662,0,0,-1.7591,-1.7601,-1.7605,-1.761,-1.7619,-1.7628,-1.7641,-1.7652,-1.7659,-1.7667,-1.7678,-1.7695,-1.7691,-1.7697,-1.7698,-1.7707,-1.7725,-1.7702,-1.7702,-1.7706,-1.7748,-1.7751,-1.7754,-1.7724,-1.7725,-1.7725,-1.7747,0,-1.7611,-1.7633,-1.7634,-1.7654,-1.7665,-1.7662,-1.7673,-1.7681,-1.7684,-1.7694,-1.7698,-1.7709,-1.7703,-1.7707,-1.7717,-1.7721,-1.7734,-1.772,-1.7734,-1.7735,-1.7732,-1.7758,-1.7761,-1.7782,-1.775,-1.7751,-1.7751,0,-1.7638,-1.7647,-1.7668,-1.7676,-1.768,-1.769,-1.7701,-1.771,-1.7719,-1.7721,-1.7728,-1.7728,-1.7742,-1.7733,-1.7752,-1.7743,-1.7749,-1.7752,-1.7753,-1.7754,-1.7744,-1.776,-1.7788,-1.7791,-1.7756,-1.7755,-1.7755,0,-1.7654,-1.7671,-1.7686,-1.7691,-1.77,-1.7707,-1.7712,-1.772,-1.7726,-1.7736,-1.774,-1.7752,-1.7758,-1.7767,-1.777,-1.7763,-1.7789,-1.778,-1.7791,-1.7791,-1.7796,-1.7796,-1.7826,-1.7801,-1.7801,-1.7801,-1.7801,0,-1.7677,-1.769,-1.7693,-1.7702,-1.7717,-1.7719,-1.7733,-1.7737,-1.7745,-1.7755,-1.7754,-1.7763,-1.7767,-1.7777,-1.778,-1.7795,-1.7798,-1.7801,-1.7801,-1.78,-1.78,-1.7804,-1.7802,-1.7802,-1.7802,-1.7802,-1.7801,0,-1.7697,-1.77,-1.7716,-1.7724,-1.7726,-1.7737,-1.7743,-1.7753,-1.7756,-1.7769,-1.7772,-1.7778,-1.779,-1.7794,-1.7809,-1.7811,-1.7829,-1.7828,-1.7826,-1.7826,-1.7836,-1.7835,-1.787,-1.7874,-1.7847,-1.7847,-1.7847,0,-1.7711,-1.7721,-1.773,-1.7736,-1.7741,-1.7752,-1.7758,-1.776,-1.7768,-1.7778,-1.7786,-1.7798,-1.7808,-1.7828,-1.7834,-1.7846,-1.7845,-1.7857,-1.7847,-1.7846,-1.7845,-1.7844,-1.7845,-1.7858,-1.7858,-1.7859,-1.7859,0,-1.7736,-1.7737,-1.7746,-1.7757,-1.7765,-1.7773,-1.7781,-1.7786,-1.779,-1.7798,-1.781,-1.7818,-1.7833,-1.7846,-1.7857,-1.7863,-1.7862,-1.7862,-1.7865,-1.7864,-1.7862,-1.7863,-1.783,-1.7861,-1.7861,-1.7861,-1.7861,-1.786,-1.7754,-1.7762,-1.777,-1.778,-1.7786,-1.7794,-1.7803,-1.7807,-1.7817,-1.7829,-1.783,-1.7844,-1.7853,-1.7868,-1.7874,-1.7885,-1.7882,-1.7887,-1.7888,-1.7889,-1.7889,-1.7861,-1.7888,-1.7888,-1.7888,-1.7887,-1.7887,0,-1.7778,-1.7783,-1.7793,-1.7803,-1.7812,-1.781,-1.7818,-1.7826,-1.7838,-1.7846,-1.7855,-1.787,-1.7882,-1.7888,-1.79,-1.7908,-1.7908,-1.7911,-1.791,-1.7911,-1.7892,-1.7888,-1.7911,-1.7911,-1.7911,-1.7911,-1.7911,-1.7911,-1.7792,-1.7806,-1.7808,-1.7826,-1.7831,-1.7843,-1.7848,-1.7856,-1.7862,-1.7878,-1.7887,-1.7891,-1.7899,-1.7912,-1.7923,-1.7925,-1.7929,-1.7933,-1.7934,-1.7915,-1.7913,-1.7911,-1.7907,-1.7934,-1.7934,-1.7953,-1.7953,-1.7953]},{"header":{"parameterUnit":"m.s-1","parameterCategory":1,"la1":30.2991,"la2":30.254,"lo1":-89.0895,"lo2":-89.0444,"dy":0.0017,"dx":0.0017,"nx":28,"ny":28,"refTime":"2025-03-17T09:00:00:Z","depth":0,"parameterNumber":3,"parameterNumberName":"V-component_of_WINDS"},"data":[0,0,0,0,0,0,0,0,0,0,0,0,0,0,0,0,0,0,0,0,0,0,0,0,0,0,0,0,0,0,0,0,0,0,0,0,0,0,0,0,0,0,0,0,0,0,0,0,0,0,0,0,0,0,0,0,0,0,5.9554,5.9555,0,5.967,5.9671,5.9672,5.9639,5.9637,5.9634,5.9632,5.9745,5.975,5.9755,0,0,0,0,0,0,0,0,0,0,0,0,0,5.93,5.9304,5.9554,5.9556,5.9557,5.9669,5.9671,5.9673,5.964,5.9637,5.9634,5.9631,5.9743,5.9749,5.9755,0,0,0,0,0,0,0,0,0,0,0,0,0,5.9412,5.9306,5.9554,5.9554,5.9555,5.9669,5.9671,5.9673,5.964,5.9637,5.9633,5.963,5.9741,5.9749,5.9756,5.9875,0,0,5.978,5.9783,0,0,0,0,0,0,0,0,5.9406,5.9421,5.9553,5.9554,5.9556,5.9637,5.9623,5.9741,5.9641,5.9608,5.9632,5.9628,5.9711,5.9721,5.975,5.988,5.9885,5.9781,5.9785,5.9789,5.9791,0,0,0,0,0,0,0,5.9398,5.9416,5.96,5.9555,5.9557,5.9547,5.9559,5.9645,5.9678,5.961,5.9608,5.9623,5.9711,5.9743,5.9753,5.9887,5.9781,5.9787,5.9792,5.9795,6.0119,6.0123,0,0,0,0,0,0,5.939,5.941,5.9596,5.9603,5.9471,5.9554,5.9568,5.9614,5.9677,5.9683,5.9626,5.9621,5.9731,5.9744,5.9757,5.99,5.9789,5.9796,5.9801,6.0115,6.012,6.0124,0,0,0,0,0,0,5.9384,5.9407,5.9591,5.9506,5.9529,5.9563,5.9615,5.9618,5.965,5.9688,5.9693,5.9652,5.9729,5.9746,5.9846,5.9903,5.98,5.9807,6.0111,6.0117,6.0122,6.0186,0,0,0,0,0,0,5.9377,5.9405,5.9452,5.9507,5.9534,5.9681,5.9618,5.9623,5.9664,5.9659,5.9715,5.972,5.9728,5.9835,5.9854,5.9912,5.9813,6.0106,6.0113,6.012,6.0179,6.0194,6.0206,0,0,0,0,0,5.9368,5.9464,5.9454,5.9477,5.9593,5.9684,5.9699,5.9707,5.9669,5.9715,5.974,5.9719,5.9894,5.9845,5.9867,5.9928,6.0102,6.0111,6.012,6.0173,6.0191,6.0206,0,0,0,0,0,0,5.9412,5.9471,5.9461,5.9578,5.9627,5.9678,5.9737,5.9725,5.9784,5.9776,5.9782,5.9795,5.9898,5.9922,5.9867,6.0046,5.9992,6.0006,6.0026,6.0043,6.0056,6.0047,5.9819,0,0,0,0,0,5.9436,5.9506,5.9554,5.9652,5.9677,5.9703,5.9743,5.9745,5.9795,5.9815,5.9846,5.9894,5.9959,6.0002,6.0065,6.0183,6.0194,6.0235,6.0249,6.026,6.0271,6.0335,6.0353,6.0153,6.0153,6.0153,0,0,5.9484,5.9525,5.9569,5.9662,5.97,5.9771,5.972,5.9798,5.9851,5.9826,5.9923,5.9948,6.0001,6.0111,6.0161,6.0135,6.0329,6.0271,6.0279,6.0285,6.0346,6.0365,6.0381,6.0159,6.0158,6.0157,0,0,5.961,5.9648,5.9735,5.9774,5.9833,5.985,5.987,5.9925,5.9941,6.0039,6.0022,6.0083,6.0196,6.0235,6.0269,6.041,6.0393,6.043,6.05,6.0562,6.0578,6.0592,6.0641,6.0659,6.0442,6.0442,6.0442,0,5.9662,5.9771,5.978,5.986,5.9901,5.9884,5.997,6.0007,6.0082,6.011,6.0081,6.0223,6.0257,6.0376,6.041,6.0439,6.0461,6.0424,6.0575,6.0589,6.0602,6.065,6.0668,6.0446,6.0445,6.0445,6.0445,0,5.9833,5.9909,5.9971,6.0047,6.0094,6.0177,6.0197,6.0244,6.0242,6.0261,6.0361,6.0402,6.0472,6.0501,6.0499,6.0619,6.0601,6.0574,6.052,6.0625,6.067,6.0688,6.0452,6.045,6.0449,6.0448,0,0,5.9988,6.0069,6.0091,6.0125,6.0189,6.0247,6.0328,6.0399,6.0439,6.0491,6.0559,6.0655,6.0631,6.067,6.0672,6.0726,6.0835,6.0692,6.0693,6.0717,6.0969,6.0989,6.101,6.0824,6.0827,6.083,6.0964,0,6.0119,6.0265,6.0275,6.0406,6.0475,6.046,6.0531,6.0576,6.0597,6.0657,6.0678,6.0747,6.0709,6.0733,6.0786,6.081,6.0885,6.0801,6.0885,6.0888,6.0872,6.1033,6.1055,6.1179,6.0982,6.0985,6.0987,0,6.0291,6.035,6.0489,6.0543,6.0572,6.0636,6.0702,6.0761,6.0812,6.0822,6.0867,6.0862,6.0943,6.0888,6.1,6.0942,6.0977,6.0994,6.0999,6.1007,6.0943,6.1044,6.1219,6.1238,6.1014,6.1012,6.101,0,6.039,6.0505,6.0602,6.0632,6.0697,6.0742,6.0771,6.0819,6.0861,6.0918,6.0945,6.101,6.1046,6.1095,6.1107,6.1065,6.1219,6.1164,6.1229,6.1229,6.1261,6.1259,6.1444,6.1285,6.1285,6.1285,6.1284,0,6.0534,6.0619,6.0648,6.0708,6.0802,6.0813,6.0905,6.0931,6.0974,6.1037,6.1027,6.1087,6.1099,6.116,6.117,6.1261,6.1277,6.1287,6.1288,6.1288,6.1286,6.131,6.1302,6.129,6.1288,6.1287,6.1287,0,6.066,6.0683,6.0789,6.0843,6.0858,6.0925,6.0971,6.1027,6.1047,6.1127,6.1146,6.1176,6.1248,6.1265,6.135,6.1356,6.1464,6.1457,6.1448,6.1447,6.1511,6.1504,6.1716,6.1745,6.1568,6.157,6.1571,0,6.0751,6.0816,6.0878,6.0921,6.0953,6.1021,6.1065,6.1077,6.1122,6.1186,6.1235,6.1306,6.1363,6.1479,6.1506,6.1571,6.1565,6.1635,6.1575,6.1572,6.1566,6.1562,6.1568,6.1647,6.1648,6.165,6.1651,0,6.0909,6.0917,6.0981,6.105,6.1102,6.1156,6.1207,6.1242,6.1261,6.1312,6.1387,6.1432,6.152,6.159,6.1655,6.1683,6.167,6.167,6.1689,6.1688,6.168,6.1685,6.1478,6.1665,6.1664,6.1663,6.1662,6.1661,6.102,6.1077,6.113,6.1202,6.1242,6.129,6.1346,6.1373,6.1436,6.151,6.1513,6.1594,6.1642,6.1729,6.1761,6.1823,6.1801,6.1828,6.1835,6.1841,6.1847,6.1671,6.1835,6.1835,6.1834,6.1834,6.1834,0,6.1177,6.1211,6.1276,6.1349,6.1405,6.1391,6.1447,6.1494,6.1566,6.1613,6.1671,6.1756,6.1824,6.1858,6.1925,6.1968,6.1964,6.1985,6.1982,6.1988,6.1862,6.184,6.1988,6.1988,6.1988,6.1987,6.1987,6.1987,6.1266,6.1362,6.1377,6.1492,6.1524,6.1605,6.1638,6.1682,6.172,6.1817,6.1874,6.1896,6.1938,6.2008,6.2069,6.2077,6.2102,6.2126,6.2131,6.2013,6.1997,6.1982,6.1961,6.2132,6.2132,6.2252,6.2253,6.2254]}]]